�������l�o���
Date,Time,MP-1(��Sv/h),MP-2(��Sv/h),MP-3(��Sv/h),MP-4(��Sv/h),MP-5(��Sv/h),MP-6(��Sv/h),MP-7(��Sv/h),MP-8(��Sv/h),����,����(m/s),���J
2017/06/05,00:00,1.008,1.602,1.073,1.915,1.304,0.534,0.978,0.905,�k��,5.0,��
2017/06/05,00:10,1.006,1.601,1.073,1.918,1.307,0.534,0.979,0.904,�k�k��,4.7,��
2017/06/05,00:20,1.006,1.603,1.073,1.917,1.308,0.535,0.981,0.906,�k��,5.1,��
2017/06/05,00:30,1.006,1.600,1.072,1.917,1.308,0.534,0.980,0.905,�k��,5.9,��
2017/06/05,00:40,1.007,1.604,1.071,1.916,1.309,0.535,0.981,0.904,�k��,5.9,��
2017/06/05,00:50,1.006,1.601,1.070,1.916,1.307,0.534,0.980,0.904,�k��,5.3,��
2017/06/05,01:00,1.006,1.603,1.071,1.919,1.304,0.534,0.980,0.904,�k��,5.5,��
2017/06/05,01:10,1.006,1.602,1.073,1.918,1.306,0.533,0.980,0.906,�k��,5.5,��
2017/06/05,01:20,1.004,1.603,1.070,1.918,1.307,0.533,0.982,0.904,���k��,3.6,��
2017/06/05,01:30,1.007,1.604,1.071,1.917,1.307,0.533,0.981,0.905,���k��,3.9,��
2017/06/05,01:40,1.007,1.601,1.073,1.915,1.306,0.534,0.977,0.905,�k��,3.3,��
2017/06/05,01:50,1.006,1.602,1.073,1.915,1.307,0.534,0.982,0.904,���k��,3.8,��
2017/06/05,02:00,1.007,1.602,1.072,1.917,1.305,0.533,0.978,0.907,���k��,3.8,��
2017/06/05,02:10,1.006,1.603,1.071,1.915,1.306,0.537,0.979,0.903,���k��,2.6,��
2017/06/05,02:20,1.006,1.598,1.071,1.919,1.304,0.534,0.977,0.906,�k�k��,2.3,��
2017/06/05,02:30,1.006,1.602,1.070,1.916,1.309,0.535,0.978,0.904,�k��,2.3,��
2017/06/05,02:40,1.006,1.603,1.072,1.915,1.306,0.533,0.977,0.905,�k�k��,1.2,��
2017/06/05,02:50,1.006,1.601,1.071,1.915,1.305,0.534,0.979,0.904,�k�k��,2.0,��
2017/06/05,03:00,1.004,1.604,1.071,1.918,1.305,0.535,0.977,0.905,�k�k��,3.2,��
2017/06/05,03:10,1.007,1.602,1.071,1.916,1.306,0.532,0.978,0.905,�k��,4.1,��
2017/06/05,03:20,1.007,1.600,1.070,1.918,1.307,0.533,0.977,0.905,���k��,3.5,��
2017/06/05,03:30,1.005,1.601,1.071,1.915,1.305,0.534,0.980,0.904,��,3.2,��
2017/06/05,03:40,1.005,1.600,1.069,1.916,1.302,0.534,0.979,0.905,���k��,3.5,��
2017/06/05,03:50,1.006,1.601,1.070,1.917,1.308,0.533,0.979,0.904,���k��,3.0,��
2017/06/05,04:00,1.005,1.599,1.070,1.918,1.304,0.534,0.979,0.905,��,3.2,��
2017/06/05,04:10,1.004,1.600,1.071,1.915,1.304,0.534,0.978,0.903,��,4.4,��
2017/06/05,04:20,1.007,1.601,1.070,1.916,1.303,0.532,0.976,0.903,��,5.0,��
2017/06/05,04:30,1.005,1.601,1.069,1.916,1.307,0.534,0.977,0.904,��,5.0,��
2017/06/05,04:40,1.006,1.603,1.070,1.914,1.304,0.533,0.976,0.905,��,4.7,��
2017/06/05,04:50,1.002,1.598,1.069,1.916,1.304,0.534,0.978,0.905,��,4.2,��
2017/06/05,05:00,1.004,1.598,1.067,1.919,1.305,0.534,0.979,0.903,���k��,3.4,��
2017/06/05,05:10,1.005,1.600,1.069,1.915,1.308,0.533,0.979,0.903,��,3.9,��
2017/06/05,05:20,1.005,1.601,1.071,1.916,1.305,0.535,0.978,0.904,��,4.2,��
2017/06/05,05:30,1.005,1.602,1.071,1.918,1.304,0.534,0.979,0.904,��,4.7,��
2017/06/05,05:40,1.005,1.600,1.070,1.915,1.304,0.534,0.980,0.905,��,4.0,��
2017/06/05,05:50,1.005,1.600,1.070,1.917,1.305,0.534,0.980,0.906,���k��,3.0,��
2017/06/05,06:00,1.005,1.604,1.071,1.919,1.306,0.534,0.978,0.904,���k��,2.9,��
2017/06/05,06:10,1.006,1.601,1.072,1.918,1.307,0.536,0.978,0.904,�k��,2.6,��
2017/06/05,06:20,1.007,1.603,1.070,1.918,1.305,0.534,0.979,0.903,���k��,1.5,��
2017/06/05,06:30,1.005,1.603,1.070,1.917,1.305,0.533,0.980,0.905,���쐼,1.7,��
2017/06/05,06:40,1.007,1.601,1.069,1.917,1.306,0.533,0.978,0.906,��,1.5,��
2017/06/05,06:50,1.008,1.601,1.071,1.921,1.305,0.536,0.980,0.905,��,1.7,��
2017/06/05,07:00,1.007,1.601,1.074,1.918,1.309,0.533,0.983,0.905,���k��,2.0,��
2017/06/05,07:10,1.008,1.602,1.073,1.920,1.306,0.532,0.983,0.906,�k��,2.3,��
2017/06/05,07:20,1.008,1.602,1.074,1.921,1.305,0.533,0.980,0.905,���k��,3.7,��
2017/06/05,07:30,1.005,1.600,1.074,1.920,1.309,0.533,0.981,0.906,�k�k��,3.5,��
2017/06/05,07:40,1.006,1.603,1.074,1.917,1.305,0.532,0.979,0.908,�k�k��,3.8,��
2017/06/05,07:50,1.006,1.605,1.075,1.923,1.306,0.532,0.979,0.908,�k�k��,3.8,��
2017/06/05,08:00,1.006,1.601,1.077,1.919,1.304,0.533,0.977,0.903,�k,3.0,��
2017/06/05,08:10,1.006,1.601,1.075,1.923,1.306,0.533,0.977,0.905,�k�k��,3.2,��
2017/06/05,08:20,1.008,1.604,1.075,1.923,1.308,0.534,0.977,0.903,�k��,5.0,��
2017/06/05,08:30,1.007,1.601,1.076,1.920,1.310,0.533,0.979,0.902,�k�k��,4.3,��
2017/06/05,08:40,1.007,1.603,1.075,1.922,1.307,0.533,0.978,0.903,�k�k��,4.6,��
2017/06/05,08:50,1.008,1.606,1.072,1.925,1.309,0.532,0.978,0.903,�k��,4.1,��
2017/06/05,09:00,1.008,1.606,1.072,1.924,1.308,0.534,0.979,0.903,�k��,3.4,��
2017/06/05,09:10,1.008,1.605,1.070,1.923,1.308,0.533,0.979,0.903,�k��,3.9,��
2017/06/05,09:20,1.007,1.605,1.072,1.923,1.307,0.535,0.982,0.904,�k��,4.6,��
2017/06/05,09:30,1.010,1.602,1.073,1.925,1.311,0.533,0.980,0.903,�k��,4.2,��
2017/06/05,09:40,1.008,1.603,1.072,1.925,1.309,0.533,0.981,0.903,�k��,4.4,��
2017/06/05,09:50,1.005,1.605,1.073,1.928,1.309,0.535,0.979,0.902,���k��,3.6,��
2017/06/05,10:00,1.010,1.609,1.075,1.925,1.312,0.532,0.979,0.902,���k��,3.9,��
2017/06/05,10:10,1.010,1.607,1.074,1.923,1.312,0.533,0.980,0.903,���k��,3.6,��
2017/06/05,10:20,1.010,1.605,1.073,1.928,1.311,0.533,0.981,0.902,���k��,3.5,��
2017/06/05,10:30,1.010,1.607,1.074,1.926,1.311,0.533,0.979,0.903,���k��,3.1,��
2017/06/05,10:40,1.011,1.606,1.076,1.925,1.312,0.534,0.979,0.903,��,2.6,��
2017/06/05,10:50,1.011,1.606,1.076,1.928,1.313,0.533,0.980,0.903,��,2.6,��
2017/06/05,11:00,1.009,1.607,1.076,1.924,1.309,0.535,0.981,0.904,��,2.0,��
2017/06/05,11:10,1.011,1.608,1.077,1.927,1.313,0.533,0.979,0.904,�쓌,3.5,��
2017/06/05,11:20,1.011,1.607,1.076,1.923,1.315,0.535,0.979,0.904,���쓌,2.2,��
2017/06/05,11:30,1.011,1.608,1.075,1.924,1.315,0.534,0.982,0.903,���k��,2.5,��
2017/06/05,11:40,1.009,1.607,1.075,1.922,1.316,0.535,0.981,0.905,��,3.6,��
2017/06/05,11:50,1.015,1.612,1.076,1.925,1.317,0.535,0.981,0.904,���k��,3.5,��
2017/06/05,12:00,1.012,1.610,1.076,1.922,1.318,0.534,0.979,0.904,��,3.5,��
2017/06/05,12:10,1.011,1.611,1.077,1.923,1.316,0.535,0.980,0.904,���k��,3.2,��
2017/06/05,12:20,1.013,1.613,1.076,1.921,1.317,0.537,0.980,0.904,��,2.5,��
2017/06/05,12:30,1.014,1.614,1.079,1.925,1.316,0.534,0.981,0.903,���쓌,2.3,��
2017/06/05,12:40,1.011,1.615,1.078,1.925,1.317,0.536,0.982,0.904,���쓌,3.1,��
2017/06/05,12:50,1.011,1.613,1.078,1.926,1.317,0.535,0.980,0.903,���쓌,2.3,��
2017/06/05,13:00,1.015,1.611,1.079,1.926,1.321,0.536,0.982,0.903,��,3.1,��
2017/06/05,13:10,1.014,1.613,1.075,1.923,1.322,0.533,0.980,0.904,��,3.6,��
2017/06/05,13:20,1.014,1.614,1.079,1.923,1.318,0.537,0.981,0.903,���k��,3.3,��
2017/06/05,13:30,1.012,1.613,1.076,1.926,1.319,0.534,0.981,0.903,���k��,2.3,��
2017/06/05,13:40,1.013,1.614,1.077,1.923,1.319,0.534,0.980,0.903,���k��,2.0,��
2017/06/05,13:50,1.012,1.616,1.077,1.926,1.322,0.535,0.980,0.903,���k��,1.9,��
2017/06/05,14:00,1.012,1.617,1.077,1.926,1.321,0.535,0.978,0.905,��,1.4,��
2017/06/05,14:10,1.014,1.612,1.073,1.925,1.321,0.536,0.981,0.903,��,1.4,��
2017/06/05,14:20,1.016,1.614,1.069,1.925,1.318,0.535,0.980,0.905,��,2.0,��
2017/06/05,14:30,1.016,1.614,1.067,1.929,1.319,0.537,0.980,0.905,��,2.0,��
2017/06/05,14:40,1.015,1.616,1.070,1.928,1.318,0.536,0.982,0.904,�k��,2.0,��
2017/06/05,14:50,1.015,1.613,1.067,1.925,1.318,0.535,0.982,0.905,�k�k��,1.7,��
2017/06/05,15:00,1.015,1.612,1.067,1.928,1.319,0.535,0.980,0.903,�k,1.7,��
2017/06/05,15:10,1.014,1.616,1.076,1.926,1.321,0.536,0.980,0.903,�k�k��,2.2,��
2017/06/05,15:20,1.013,1.613,1.079,1.927,1.322,0.536,0.982,0.903,�k�k��,1.1,��
2017/06/05,15:30,1.014,1.614,1.077,1.927,1.321,0.535,0.980,0.904,�k��,1.1,��
2017/06/05,15:40,1.013,1.615,1.078,1.929,1.319,0.535,0.979,0.904,�k�k��,1.2,��
2017/06/05,15:50,1.014,1.619,1.079,1.929,1.322,0.537,0.982,0.904,���k��,1.5,��
2017/06/05,16:00,1.012,1.619,1.078,1.930,1.318,0.536,0.980,0.904,�k��,1.5,��
2017/06/05,16:10,1.015,1.618,1.081,1.930,1.319,0.537,0.981,0.903,�k��,1.5,��
2017/06/05,16:20,1.013,1.617,1.081,1.933,1.321,0.537,0.982,0.903,��,2.0,��
2017/06/05,16:30,1.012,1.618,1.079,1.929,1.319,0.536,0.981,0.905,�k�k��,1.5,��
2017/06/05,16:40,1.014,1.619,1.080,1.933,1.318,0.535,0.982,0.904,�k�k��,1.4,��
2017/06/05,16:50,1.016,1.618,1.083,1.929,1.321,0.538,0.981,0.906,�k��,0.9,��
2017/06/05,17:00,1.015,1.620,1.083,1.933,1.320,0.536,0.980,0.905,�k�k��,0.9,��
2017/06/05,17:10,1.017,1.619,1.082,1.934,1.320,0.537,0.982,0.905,���k��,2.0,��
2017/06/05,17:20,1.016,1.621,1.084,1.931,1.322,0.536,0.980,0.905,���쓌,0.6,��
2017/06/05,17:30,1.013,1.618,1.083,1.934,1.324,0.536,0.980,0.906,���k��,1.1,��
2017/06/05,17:40,1.014,1.621,1.081,1.932,1.326,0.539,0.979,0.907,���k��,0.8,��
2017/06/05,17:50,1.016,1.624,1.080,1.931,1.323,0.538,0.981,0.905,��,0.9,��
2017/06/05,18:00,1.015,1.620,1.079,1.933,1.322,0.536,0.979,0.907,��,1.5,��
2017/06/05,18:10,1.015,1.622,1.079,1.929,1.323,0.538,0.980,0.908,���쓌,1.2,��
2017/06/05,18:20,1.014,1.621,1.078,1.932,1.322,0.537,0.981,0.907,���쓌,1.5,��
2017/06/05,18:30,1.016,1.622,1.081,1.932,1.323,0.536,0.979,0.908,��,2.5,��
2017/06/05,18:40,1.019,1.622,1.081,1.932,1.323,0.536,0.982,0.907,���쓌,2.3,��
2017/06/05,18:50,1.014,1.620,1.082,1.930,1.325,0.534,0.982,0.905,��,2.9,��
2017/06/05,19:00,1.016,1.621,1.080,1.934,1.326,0.538,0.978,0.906,��,1.9,��
2017/06/05,19:10,1.015,1.620,1.082,1.931,1.325,0.538,0.981,0.906,���k��,1.9,��
2017/06/05,19:20,1.016,1.619,1.082,1.932,1.320,0.537,0.979,0.905,���k��,2.0,��
2017/06/05,19:30,1.015,1.619,1.082,1.933,1.323,0.536,0.985,0.906,���k��,2.2,��
2017/06/05,19:40,1.014,1.621,1.080,1.929,1.321,0.537,0.982,0.906,���k��,3.1,��
2017/06/05,19:50,1.015,1.617,1.079,1.929,1.322,0.536,0.982,0.907,�k��,3.3,��
2017/06/05,20:00,1.015,1.619,1.080,1.931,1.323,0.533,0.983,0.906,�k��,3.4,��
2017/06/05,20:10,1.013,1.617,1.078,1.931,1.323,0.536,0.982,0.904,�k��,2.6,��
2017/06/05,20:20,1.016,1.615,1.077,1.930,1.323,0.537,0.981,0.905,�k��,1.7,��
2017/06/05,20:30,1.012,1.617,1.079,1.928,1.321,0.534,0.982,0.905,���k��,1.7,��
2017/06/05,20:40,1.013,1.619,1.079,1.928,1.322,0.534,0.983,0.904,�k��,1.7,��
2017/06/05,20:50,1.015,1.616,1.078,1.929,1.322,0.535,0.983,0.906,�k,1.4,��
2017/06/05,21:00,1.013,1.617,1.079,1.927,1.323,0.536,0.982,0.905,�k�k��,1.4,��
2017/06/05,21:10,1.012,1.619,1.078,1.928,1.321,0.533,0.981,0.906,�k�k��,1.7,��
2017/06/05,21:20,1.012,1.618,1.076,1.925,1.321,0.535,0.982,0.903,�k�k��,1.9,��
2017/06/05,21:30,1.012,1.615,1.080,1.930,1.321,0.535,0.981,0.906,�k,1.7,��
2017/06/05,21:40,1.011,1.618,1.078,1.929,1.322,0.534,0.981,0.907,�k�k��,1.2,��
2017/06/05,21:50,1.011,1.618,1.077,1.928,1.318,0.535,0.981,0.904,�k�k��,1.7,��
2017/06/05,22:00,1.012,1.616,1.078,1.929,1.319,0.534,0.980,0.906,�k,1.5,��
2017/06/05,22:10,1.011,1.615,1.079,1.927,1.317,0.536,0.982,0.904,�k,1.7,��
2017/06/05,22:20,1.011,1.616,1.077,1.929,1.321,0.536,0.981,0.905,�k,2.2,��
2017/06/05,22:30,1.011,1.616,1.080,1.929,1.322,0.535,0.980,0.905,�k,2.2,��
2017/06/05,22:40,1.012,1.617,1.077,1.928,1.322,0.535,0.980,0.904,�k�k��,2.0,��
2017/06/05,22:50,1.009,1.613,1.079,1.928,1.321,0.535,0.981,0.904,�k,1.9,��
2017/06/05,23:00,1.011,1.617,1.077,1.928,1.320,0.535,0.980,0.905,�k,2.3,��
2017/06/05,23:10,1.010,1.618,1.077,1.927,1.321,0.535,0.982,0.905,�k,2.5,��
2017/06/05,23:20,1.012,1.615,1.076,1.929,1.320,0.534,0.981,0.903,�k,2.6,��
2017/06/05,23:30,1.010,1.617,1.078,1.927,1.320,0.534,0.980,0.903,�k,2.5,��
2017/06/05,23:40,1.011,1.614,1.075,1.926,1.318,0.534,0.979,0.904,�k,2.6,��
2017/06/05,23:50,1.012,1.613,1.079,1.925,1.321,0.535,0.979,0.905,�k,2.6,��
